Location: *
(51.2167°N, 10.0667°E)
Time: 05:13:10
(UTC+00:00)

Okean 1 - Pass Details

Date: 12 December 2019
Orbit: 540 x 554 km, 82.5° (Epoch: 28 January)

Event Time Altitude Azimuth Distance (km) Brightness Sun altitude
Rises 16:59:52 0° 168° (SSE) 2,699 6.9 -15.8°
Reaches altitude 10° 17:02:07 10° 160° (SSE) 1,810 5.9 -16.1°
Maximum altitude 17:05:48 38° 93° (E) 849 3.8 -16.7°
Enters shadow 17:06:26 35° 70° (ENE) 892 3.8 -16.7°
